Time,TemperatureF,DewpointF,PressureIn,WindDirection,WindDirectionDegrees,WindSpeedMPH,WindSpeedGustMPH,Humidity,HourlyPrecipIn,Conditions,Clouds,dailyrainin,SoftwareType,DateUTC
2013-01-13 00:03:00,61.0,60.0,-100.00,SE,145,3.0,8.0,96,0.00,,,-99.99,,2013-01-13 05:03:00,
2013-01-13 00:12:00,61.0,59.0,-100.00,SE,140,3.0,6.0,96,0.00,,,-99.99,,2013-01-13 05:12:00,
2013-01-13 00:22:00,61.0,59.0,-100.00,SE,140,3.0,6.0,96,0.00,,,-99.99,,2013-01-13 05:22:00,
2013-01-13 00:32:00,61.0,60.0,-100.00,SE,145,4.0,9.0,95,0.00,,,-99.99,,2013-01-13 05:32:00,
2013-01-13 00:42:00,61.0,59.0,-100.00,South,170,5.0,11.0,94,0.00,,,-99.99,,2013-01-13 05:42:00,
2013-01-13 00:52:00,62.0,60.0,-100.00,SE,130,6.0,13.0,93,0.00,,,-99.99,,2013-01-13 05:52:00,
2013-01-13 01:03:00,62.0,60.0,-100.00,SSE,160,6.0,9.0,92,0.00,,,-99.99,,2013-01-13 06:03:00,
2013-01-13 01:12:00,62.0,59.0,-100.00,South,175,6.0,13.0,91,0.00,,,-99.99,,2013-01-13 06:12:00,
2013-01-13 01:22:00,62.0,59.0,-100.00,South,170,7.0,12.0,90,0.00,,,-99.99,,2013-01-13 06:22:00,
2013-01-13 01:32:00,62.0,59.0,-100.00,South,170,7.0,12.0,90,0.00,,,-99.99,,2013-01-13 06:32:00,
2013-01-13 01:42:00,62.0,59.0,-100.00,South,190,7.0,14.0,89,0.00,,,-99.99,,2013-01-13 06:42:00,
2013-01-13 01:52:00,62.0,59.0,-100.00,South,185,6.0,14.0,88,0.00,,,-99.99,,2013-01-13 06:52:00,
2013-01-13 02:02:00,62.0,59.0,-100.00,South,175,6.0,12.0,88,0.00,,,-99.99,,2013-01-13 07:02:00,
2013-01-13 02:12:00,62.0,59.0,-100.00,SSE,165,9.0,14.0,88,0.00,,,-99.99,,2013-01-13 07:12:00,
2013-01-13 02:22:00,62.0,59.0,-100.00,SSE,165,7.0,17.0,88,0.00,,,-99.99,,2013-01-13 07:22:00,
2013-01-13 02:32:00,63.0,59.0,-100.00,SSE,165,9.0,17.0,87,0.00,,,-99.99,,2013-01-13 07:32:00,
2013-01-13 02:42:00,62.0,58.0,-100.00,South,180,9.0,14.0,87,0.00,,,-99.99,,2013-01-13 07:42:00,
2013-01-13 02:52:00,62.0,58.0,-100.00,South,170,9.0,16.0,87,0.00,,,-99.99,,2013-01-13 07:52:00,
2013-01-13 03:02:00,62.0,58.0,-100.00,South,170,8.0,16.0,87,0.00,,,-99.99,,2013-01-13 08:02:00,
2013-01-13 03:12:00,62.0,58.0,-100.00,South,175,10.0,19.0,86,0.00,,,-99.99,,2013-01-13 08:12:00,
2013-01-13 03:22:00,62.0,58.0,-100.00,South,170,7.0,18.0,86,0.00,,,-99.99,,2013-01-13 08:22:00,
2013-01-13 03:32:00,62.0,58.0,-100.00,South,175,9.0,16.0,85,0.00,,,-99.99,,2013-01-13 08:32:00,
2013-01-13 03:42:00,62.0,58.0,-100.00,South,175,9.0,15.0,85,0.00,,,-99.99,,2013-01-13 08:42:00,
2013-01-13 03:52:00,62.0,58.0,-100.00,South,170,9.0,17.0,85,0.00,,,-99.99,,2013-01-13 08:52:00,
2013-01-13 04:02:00,62.0,58.0,-100.00,SSE,165,9.0,18.0,85,0.00,,,-99.99,,2013-01-13 09:02:00,
2013-01-13 04:12:00,62.0,58.0,-100.00,South,180,10.0,16.0,84,0.00,,,-99.99,,2013-01-13 09:12:00,
2013-01-13 04:22:00,63.0,58.0,-100.00,South,185,12.0,20.0,84,0.00,,,-99.99,,2013-01-13 09:22:00,
2013-01-13 04:32:00,63.0,57.0,-100.00,South,180,11.0,21.0,82,0.00,,,-99.99,,2013-01-13 09:32:00,
2013-01-13 04:42:00,63.0,57.0,-100.00,South,190,11.0,21.0,81,0.00,,,-99.99,,2013-01-13 09:42:00,
2013-01-13 04:52:00,63.0,57.0,-100.00,South,185,14.0,25.0,79,0.00,,,-99.99,,2013-01-13 09:52:00,
2013-01-13 05:03:00,63.0,57.0,-100.00,SSW,195,13.0,21.0,80,0.00,,,-99.99,,2013-01-13 10:03:00,
2013-01-13 05:12:00,63.0,57.0,-100.00,South,170,12.0,22.0,80,0.00,,,-99.99,,2013-01-13 10:12:00,
2013-01-13 05:22:00,63.0,57.0,-100.00,South,190,14.0,22.0,79,0.00,,,-99.99,,2013-01-13 10:22:00,
2013-01-13 05:32:00,63.0,56.0,-100.00,South,170,16.0,22.0,79,0.00,,,-99.99,,2013-01-13 10:32:00,
2013-01-13 05:42:00,63.0,56.0,-100.00,South,185,14.0,22.0,79,0.00,,,-99.99,,2013-01-13 10:42:00,
2013-01-13 05:52:00,63.0,56.0,-100.00,SSW,205,14.0,24.0,79,0.00,,,-99.99,,2013-01-13 10:52:00,
2013-01-13 06:02:00,63.0,56.0,-100.00,South,185,14.0,22.0,78,0.00,,,-99.99,,2013-01-13 11:02:00,
2013-01-13 06:12:00,63.0,56.0,-100.00,SSW,210,15.0,25.0,78,0.00,,,-99.99,,2013-01-13 11:12:00,
2013-01-13 06:22:00,63.0,56.0,-100.00,SSW,210,17.0,28.0,77,0.00,,,-99.99,,2013-01-13 11:22:00,
2013-01-13 06:33:00,63.0,56.0,-100.00,SW,215,17.0,34.0,77,0.00,,,-99.99,,2013-01-13 11:33:00,
2013-01-13 06:42:00,64.0,56.0,-100.00,SW,215,22.0,30.0,76,0.00,,,-99.99,,2013-01-13 11:42:00,
2013-01-13 06:52:00,64.0,56.0,-100.00,WSW,240,21.0,33.0,77,0.00,,,-99.99,,2013-01-13 11:52:00,
2013-01-13 07:03:00,63.0,56.0,-100.00,SW,230,21.0,32.0,78,0.00,,,-99.99,,2013-01-13 12:03:00,
2013-01-13 07:12:00,63.0,56.0,-100.00,SW,225,16.0,25.0,77,0.00,,,-99.99,,2013-01-13 12:12:00,
2013-01-13 07:22:00,62.0,56.0,-100.00,SW,235,14.0,22.0,79,0.00,,,-99.99,,2013-01-13 12:22:00,
2013-01-13 07:33:00,62.0,56.0,-100.00,SW,230,14.0,21.0,81,1.10,,,-99.99,,2013-01-13 12:33:00,
2013-01-13 07:42:00,61.0,56.0,-100.00,SW,230,16.0,23.0,84,1.69,,,-99.99,,2013-01-13 12:42:00,
2013-01-13 07:52:00,60.0,56.0,-100.00,SW,230,14.0,23.0,87,0.55,,,-99.99,,2013-01-13 12:52:00,
2013-01-13 08:03:00,60.0,57.0,-100.00,SW,225,14.0,19.0,88,0.00,,,-99.99,,2013-01-13 13:03:00,
2013-01-13 08:12:00,60.0,57.0,-100.00,SW,225,11.0,18.0,89,0.00,,,-99.99,,2013-01-13 13:12:00,
2013-01-13 08:22:00,60.0,57.0,-100.00,SW,225,11.0,19.0,90,0.00,,,-99.99,,2013-01-13 13:22:00,
2013-01-13 08:33:00,59.0,57.0,-100.00,SW,235,9.0,16.0,91,0.55,,,-99.99,,2013-01-13 13:33:00,
2013-01-13 08:42:00,59.0,56.0,-100.00,SW,225,7.0,15.0,91,0.00,,,-99.99,,2013-01-13 13:42:00,
2013-01-13 08:53:00,59.0,56.0,-100.00,SW,225,8.0,12.0,92,0.00,,,-99.99,,2013-01-13 13:53:00,
2013-01-13 09:03:00,59.0,56.0,-100.00,SW,215,8.0,12.0,92,0.00,,,-99.99,,2013-01-13 14:03:00,
2013-01-13 09:12:00,58.0,56.0,-100.00,SSW,200,8.0,12.0,92,0.00,,,-99.99,,2013-01-13 14:12:00,
2013-01-13 09:22:00,58.0,56.0,-100.00,SW,230,7.0,12.0,93,0.00,,,-99.99,,2013-01-13 14:22:00,
2013-01-13 09:33:00,59.0,56.0,-100.00,SW,230,9.0,12.0,92,1.10,,,-99.99,,2013-01-13 14:33:00,
2013-01-13 09:43:00,59.0,56.0,-100.00,SW,225,9.0,16.0,92,0.55,,,-99.99,,2013-01-13 14:43:00,
2013-01-13 09:52:00,59.0,56.0,-100.00,SW,225,10.0,12.0,92,0.00,,,-99.99,,2013-01-13 14:52:00,
2013-01-13 10:03:00,59.0,56.0,-100.00,SW,220,11.0,16.0,91,0.00,,,-99.99,,2013-01-13 15:03:00,
2013-01-13 10:12:00,59.0,56.0,-100.00,SW,215,10.0,16.0,91,0.00,,,-99.99,,2013-01-13 15:12:00,
2013-01-13 10:23:00,59.0,56.0,-100.00,SW,215,10.0,13.0,90,0.55,,,-99.99,,2013-01-13 15:23:00,
2013-01-13 10:33:00,59.0,56.0,-100.00,SW,225,11.0,16.0,90,0.00,,,-99.99,,2013-01-13 15:33:00,
2013-01-13 10:43:00,60.0,56.0,-100.00,SW,230,13.0,19.0,88,0.00,,,-99.99,,2013-01-13 15:43:00,
2013-01-13 10:52:00,60.0,56.0,-100.00,SW,225,14.0,19.0,88,0.00,,,-99.99,,2013-01-13 15:52:00,
2013-01-13 11:03:00,60.0,56.0,-100.00,SW,215,12.0,19.0,87,0.00,,,-99.99,,2013-01-13 16:03:00,
2013-01-13 11:12:00,60.0,56.0,-100.00,SW,215,12.0,19.0,87,0.00,,,-99.99,,2013-01-13 16:12:00,
2013-01-13 11:23:00,60.0,56.0,-100.00,SW,215,11.0,14.0,86,0.00,,,-99.99,,2013-01-13 16:23:00,
2013-01-13 11:33:00,60.0,56.0,-100.00,SSW,200,9.0,14.0,86,0.00,,,-99.99,,2013-01-13 16:33:00,
2013-01-13 11:43:00,60.0,56.0,-100.00,SSW,200,6.0,12.0,85,0.00,,,-99.99,,2013-01-13 16:43:00,
2013-01-13 11:53:00,60.0,56.0,-100.00,South,180,7.0,15.0,84,0.00,,,-99.99,,2013-01-13 16:53:00,
2013-01-13 12:03:00,61.0,56.0,-100.00,SSE,165,6.0,13.0,85,0.00,,,-99.99,,2013-01-13 17:03:00,
2013-01-13 12:12:00,61.0,56.0,-100.00,SE,140,4.0,10.0,84,0.00,,,-99.99,,2013-01-13 17:12:00,
2013-01-13 12:22:00,61.0,56.0,-100.00,SSE,165,6.0,11.0,83,0.00,,,-99.99,,2013-01-13 17:22:00,
2013-01-13 12:33:00,62.0,56.0,-100.00,SE,135,7.0,12.0,82,0.00,,,-99.99,,2013-01-13 17:33:00,
2013-01-13 12:42:00,62.0,56.0,-100.00,SE,140,4.0,9.0,80,0.00,,,-99.99,,2013-01-13 17:42:00,
2013-01-13 12:53:00,62.0,56.0,-100.00,South,185,6.0,12.0,80,0.00,,,-99.99,,2013-01-13 17:53:00,
2013-01-13 13:03:00,62.0,56.0,-100.00,SSW,205,9.0,12.0,81,0.00,,,-99.99,,2013-01-13 18:03:00,
2013-01-13 13:12:00,62.0,56.0,-100.00,SSW,210,9.0,14.0,81,0.00,,,-99.99,,2013-01-13 18:12:00,
2013-01-13 13:23:00,62.0,56.0,-100.00,SSW,195,9.0,15.0,82,0.00,,,-99.99,,2013-01-13 18:23:00,
2013-01-13 13:33:00,62.0,56.0,-100.00,SSW,195,9.0,16.0,82,0.00,,,-99.99,,2013-01-13 18:33:00,
2013-01-13 13:43:00,61.0,56.0,-100.00,South,180,7.0,16.0,82,0.00,,,-99.99,,2013-01-13 18:43:00,
2013-01-13 13:53:00,62.0,56.0,-100.00,South,180,11.0,16.0,82,0.00,,,-99.99,,2013-01-13 18:53:00,
2013-01-13 14:03:00,62.0,56.0,-100.00,SSW,205,11.0,17.0,82,0.00,,,-99.99,,2013-01-13 19:03:00,
2013-01-13 14:12:00,62.0,56.0,-100.00,SSW,195,12.0,21.0,81,0.00,,,-99.99,,2013-01-13 19:12:00,
2013-01-13 14:22:00,62.0,56.0,-100.00,SSW,200,12.0,20.0,80,0.00,,,-99.99,,2013-01-13 19:22:00,
2013-01-13 14:33:00,62.0,56.0,-100.00,SSW,210,9.0,16.0,79,0.00,,,-99.99,,2013-01-13 19:33:00,
2013-01-13 14:43:00,62.0,55.0,-100.00,SW,225,9.0,12.0,79,0.00,,,-99.99,,2013-01-13 19:43:00,
2013-01-13 14:52:00,62.0,55.0,-100.00,SW,225,6.0,14.0,78,0.00,,,-99.99,,2013-01-13 19:52:00,
2013-01-13 15:03:00,62.0,55.0,-100.00,SSW,200,5.0,12.0,77,0.00,,,-99.99,,2013-01-13 20:03:00,
2013-01-13 15:12:00,62.0,55.0,-100.00,South,180,5.0,7.0,77,0.00,,,-99.99,,2013-01-13 20:12:00,
2013-01-13 15:22:00,62.0,55.0,-100.00,South,175,4.0,8.0,76,0.00,,,-99.99,,2013-01-13 20:22:00,
2013-01-13 15:33:00,62.0,55.0,-100.00,South,185,6.0,9.0,76,0.00,,,-99.99,,2013-01-13 20:33:00,
2013-01-13 15:43:00,62.0,54.0,-100.00,South,180,9.0,12.0,74,0.00,,,-99.99,,2013-01-13 20:43:00,
2013-01-13 15:53:00,62.0,54.0,-100.00,SSW,200,7.0,13.0,74,0.00,,,-99.99,,2013-01-13 20:53:00,
2013-01-13 16:03:00,62.0,54.0,-100.00,South,180,9.0,14.0,77,0.00,,,-99.99,,2013-01-13 21:03:00,
2013-01-13 16:12:00,61.0,55.0,-100.00,South,190,6.0,11.0,79,0.55,,,-99.99,,2013-01-13 21:12:00,
2013-01-13 16:23:00,60.0,55.0,-100.00,SSW,210,6.0,9.0,82,1.10,,,-99.99,,2013-01-13 21:23:00,
2013-01-13 16:33:00,60.0,55.0,-100.00,SSW,200,7.0,11.0,83,0.55,,,-99.99,,2013-01-13 21:33:00,
2013-01-13 16:43:00,60.0,55.0,-100.00,SSW,205,6.0,10.0,85,0.55,,,-99.99,,2013-01-13 21:43:00,
2013-01-13 16:52:00,59.0,55.0,-100.00,SSW,205,6.0,9.0,86,1.10,,,-99.99,,2013-01-13 21:52:00,
2013-01-13 17:03:00,59.0,56.0,-100.00,South,185,6.0,9.0,88,1.10,,,-99.99,,2013-01-13 22:03:00,
2013-01-13 17:12:00,59.0,56.0,-100.00,SSW,200,4.0,7.0,89,2.83,,,-99.99,,2013-01-13 22:12:00,
2013-01-13 17:22:00,58.0,55.0,-100.00,SSW,210,4.0,9.0,90,2.83,,,-99.99,,2013-01-13 22:22:00,
2013-01-13 17:33:00,58.0,55.0,-100.00,SSW,195,3.0,6.0,91,1.69,,,-99.99,,2013-01-13 22:33:00,
2013-01-13 17:43:00,58.0,55.0,-100.00,SSW,205,4.0,6.0,91,2.24,,,-99.99,,2013-01-13 22:43:00,
2013-01-13 17:52:00,57.0,55.0,-100.00,SW,220,4.0,6.0,93,2.24,,,-99.99,,2013-01-13 22:52:00,
2013-01-13 18:02:00,57.0,55.0,-100.00,SSW,200,5.0,9.0,93,2.83,,,-99.99,,2013-01-13 23:02:00,
2013-01-13 18:12:00,57.0,55.0,-100.00,SSW,200,4.0,9.0,93,1.69,,,-99.99,,2013-01-13 23:12:00,
2013-01-13 18:23:00,57.0,55.0,-100.00,South,175,4.0,8.0,94,0.55,,,-99.99,,2013-01-13 23:23:00,
2013-01-13 18:33:00,57.0,55.0,-100.00,South,190,4.0,7.0,94,0.55,,,-99.99,,2013-01-13 23:33:00,
2013-01-13 18:42:00,57.0,56.0,-100.00,SSW,200,5.0,9.0,94,2.83,,,-99.99,,2013-01-13 23:42:00,
2013-01-13 18:52:00,57.0,55.0,-100.00,South,175,6.0,9.0,94,0.55,,,-99.99,,2013-01-13 23:52:00,
2013-01-13 19:03:00,57.0,55.0,-100.00,SSE,165,2.0,8.0,95,0.55,,,-99.99,,2013-01-14 00:03:00,
2013-01-13 19:12:00,57.0,56.0,-100.00,SE,135,3.0,8.0,94,0.00,,,-99.99,,2013-01-14 00:12:00,
2013-01-13 19:22:00,57.0,56.0,-100.00,South,170,6.0,9.0,94,0.00,,,-99.99,,2013-01-14 00:22:00,
2013-01-13 19:33:00,58.0,56.0,-100.00,South,180,5.0,12.0,93,0.55,,,-99.99,,2013-01-14 00:33:00,
2013-01-13 19:43:00,58.0,55.0,-100.00,South,175,6.0,10.0,92,0.55,,,-99.99,,2013-01-14 00:43:00,
2013-01-13 19:52:00,57.0,56.0,-100.00,SW,215,7.0,11.0,93,1.69,,,-99.99,,2013-01-14 00:52:00,
2013-01-13 20:03:00,57.0,56.0,-100.00,South,185,6.0,7.0,94,0.55,,,-99.99,,2013-01-14 01:03:00,
2013-01-13 20:12:00,57.0,56.0,-100.00,SSW,210,6.0,10.0,95,2.83,,,-99.99,,2013-01-14 01:12:00,
2013-01-13 20:22:00,57.0,56.0,-100.00,SW,215,6.0,12.0,95,2.24,,,-99.99,,2013-01-14 01:22:00,
2013-01-13 20:33:00,57.0,56.0,-100.00,SSW,205,7.0,9.0,96,2.83,,,-99.99,,2013-01-14 01:33:00,
2013-01-13 20:42:00,57.0,56.0,-100.00,South,185,6.0,10.0,96,1.69,,,-99.99,,2013-01-14 01:42:00,
2013-01-13 20:52:00,57.0,56.0,-100.00,South,170,6.0,11.0,96,0.55,,,-99.99,,2013-01-14 01:52:00,
2013-01-13 21:03:00,57.0,56.0,-100.00,SSE,165,5.0,11.0,96,0.00,,,-99.99,,2013-01-14 02:03:00,
2013-01-13 21:12:00,57.0,56.0,-100.00,SSW,210,6.0,8.0,96,0.00,,,-99.99,,2013-01-14 02:12:00,
2013-01-13 21:22:00,57.0,56.0,-100.00,SSW,200,6.0,9.0,96,0.55,,,-99.99,,2013-01-14 02:22:00,
2013-01-13 21:33:00,57.0,56.0,-100.00,SSW,205,5.0,9.0,96,0.55,,,-99.99,,2013-01-14 02:33:00,
2013-01-13 21:42:00,55.0,53.0,-100.00,West,265,17.0,22.0,93,1.10,,,-99.99,,2013-01-14 02:42:00,
2013-01-13 21:53:00,47.0,45.0,-100.00,West,275,15.0,25.0,92,1.10,,,-99.99,,2013-01-14 02:53:00,
2013-01-13 22:03:00,45.0,43.0,-100.00,West,275,6.0,26.0,92,0.55,,,-99.99,,2013-01-14 03:03:00,
2013-01-13 22:12:00,45.0,43.0,-100.00,WNW,290,9.0,15.0,93,0.00,,,-99.99,,2013-01-14 03:12:00,
2013-01-13 22:22:00,45.0,43.0,-100.00,West,260,4.0,9.0,94,0.00,,,-99.99,,2013-01-14 03:22:00,
2013-01-13 22:33:00,45.0,43.0,-100.00,WNW,295,6.0,14.0,94,0.00,,,-99.99,,2013-01-14 03:33:00,
2013-01-13 22:42:00,44.0,43.0,-100.00,West,275,9.0,16.0,94,0.55,,,-99.99,,2013-01-14 03:42:00,
2013-01-13 22:52:00,43.0,41.0,-100.00,WNW,285,14.0,21.0,93,0.55,,,-99.99,,2013-01-14 03:52:00,
2013-01-13 23:03:00,42.0,40.0,-100.00,West,275,15.0,22.0,92,0.55,,,-99.99,,2013-01-14 04:03:00,
2013-01-13 23:12:00,42.0,40.0,-100.00,WNW,285,11.0,20.0,92,0.00,,,-99.99,,2013-01-14 04:12:00,
2013-01-13 23:22:00,41.0,39.0,-100.00,West,280,13.0,21.0,92,0.55,,,-99.99,,2013-01-14 04:22:00,
2013-01-13 23:32:00,41.0,38.0,-100.00,WNW,295,11.0,21.0,90,0.00,,,-99.99,,2013-01-14 04:32:00,
2013-01-13 23:42:00,41.0,38.0,-100.00,West,280,15.0,22.0,89,0.00,,,-99.99,,2013-01-14 04:42:00,
2013-01-13 23:52:00,41.0,37.0,-100.00,West,280,13.0,25.0,86,0.00,,,-99.99,,2013-01-14 04:52:00,